Find Starlink 5214

NORAD ID: 54762 Int'l Des: 2022-175 Owner: SPXS Country: US Constellation: starlink operational
LEOCIRCULAR

实时位置

正在加载3D地球...

关于 Starlink 5214

正在加载描述...

即将过境

Passes for default location (London). Set your location on the main map for personalized predictions.

高度历史

Loading altitude history...

两行轨道根数

1 54762U 22175E 26126.09102103 .00002574 00000-0 17979-3 0 9998
2 54762 53.2176 146.5107 0001371 99.4346 260.6801 15.08827193188588
Epoch: May 6, 2026 • Age: 9 hours

当前状态

高度 542.6 km
速度 7.59 km/s
星下点 -8.86°S, 98.62°E
发射日期 Dec 17, 2022
运行时间 3.3 years
类型 internet

技术详情

分类 Payload
质量 305.00 kg
干质量 290.00 kg
总质量 305.00 kg
长度 0.20 m
直径 2.80 m
跨度 9.00 m
形状 Box + pan
制造商 SPXS
平台类型 Starlink
阶段状态 In Orbit
所有者/国家 SPXS/US

Most Searched